Temp
30 26 25 27 30 30 33 29 29 24 23 27 26 25 26 26 25 25 26 27 28 29 29 28 27 27 27 26 26 25 25 25 25 25 26 26 26 26 26 26 26 25 26 25
27 25 29 31 32 33 31 29 24 22 21 23 25 25 27 27 26 26 26 23 23 24 26 27 27 27 26 26 25 25 25 25 25 25 26 26 25 25 26 26 26 26 25 25
27 29 32 32 32 32 30 30 26 26 23 23 23 24 25 26 25 24 23 22 22 23 24 26 26 26 26 26 25 25 25 25 25 24 25 25 25 25 25 25 26 26 26 26
29 32 33 32 32 33 28 28 26 25 24 22 22 24 24 25 25 25 25 22 22 23 24 25 27 26 25 25 26 25 25 25 24 24 25 25 26 25 26 26 26 26 26 26
29 31 31 32 34 34 30 31 28 26 23 22 22 22 25 24 24 25 25 24 24 23 23 25 24 26 25 25 25 25 25 24 24 24 25 25 25 25 25 25 25 26 26 26
30 33 33 33 35 35 34 29 27 25 24 23 24 23 24 24 25 26 26 25 25 23 25 25 24 24 25 25 24 24 24 24 24 24 24 25 25 25 25 25 25 26 26 26
30 32 33 35 33 33 34 29 25 25 25 27 25 24 26 27 27 27 26 25 25 25 26 24 22 22 25 25 25 24 24 24 24 24 24 24 24 25 25 25 25 25 25 26
27 28 33 34 32 30 31 30 27 25 25 27 29 27 26 29 28 28 28 26 26 26 27 26 23 24 25 24 25 24 24 24 24 24 24 24 24 25 25 26 25 25 25 26
28 29 33 33 34 33 32 29 31 25 26 27 28 27 28 27 24 24 23 27 27 26 27 25 23 25 27 23 24 24 24 24 24 24 24 24 24 25 25 25 25 25 26 26
30 27 31 33 33 32 32 31 28 27 28 28 30 28 25 25 24 24 24 22 27 27 27 25 23 23 25 24 26 25 25 25 24 24 24 24 24 24 24 25 25 25 25 26
29 28 29 32 30 29 30 28 30 27 27 27 27 27 27 25 24 25 23 22 22 26 27 26 25 24 25 24 24 24 25 25 25 24 24 24 24 24 24 24 25 25 25 25
29 28 26 30 33 32 31 30 28 25 27 27 27 25 26 24 24 24 23 22 24 25 27 24 24 23 22 23 24 24 23 24 25 25 25 25 25 25 25 25 25 25 25 25
28 26 25 25 31 30 31 31 31 28 28 27 28 25 25 24 24 24 23 24 24 25 24 25 23 23 22 22 24 25 24 23 23 24 25 25 25 25 25 25 25 25 24 25
28 27 26 22 24 24 26 29 29 29 26 27 25 24 23 24 24 21 21 21 21 23 23 22 23 23 20 20 22 24 22 23 23 22 25 26 26 26 25 25 25 25 24 24
27 25 26 25 28 29 29 29 29 29 28 28 27 25 23 22 21 20 22 21 21 24 25 24 21 20 20 19 19 21 19 25 24 21 24 26 25 26 26 25 25 25 24 24
27 25 26 26 29 30 29 29 29 30 31 26 25 23 22 23 20 19 20 21 20 20 24 24 22 20 19 18 19 20 20 22 22 20 24 26 24 24 25 25 25 24 24 24
24 24 23 25 27 29 27 26 28 28 29 27 23 24 23 22 21 19 19 21 20 22 21 21 22 22 22 21 23 21 20 20 23 22 21 22 23 23 24 24 24 24 23 23
26 24 24 23 24 24 25 25 28 28 28 25 23 23 22 22 22 21 21 21 21 18 18 18 19 19 20 20 20 19 19 18 18 18 18 18 20 20 20 21 22 23 23 23
26 24 23 22 22 25 24 24 24 25 25 25 21 22 22 21 20 19 20 19 18 17 16 15 15 17 18 18 18 18 17 17 17 16 17 17 18 18 19 19 19 20 21 21
25 24 22 23 24 23 22 26 27 26 22 26 21 21 21 22 19 19 18 17 15 14 13 13 14 15 16 17 17 17 16 16 15 15 16 17 17 17 18 18 18 18 19 17
21 21 23 22 23 22 24 25 26 23 22 25 23 20 20 19 18 17 16 15 14 13 12 12 13 13 14 16 17 15 15 14 14 14 15 15 16 16 16 17 17 16 15 15
22 21 21 20 21 22 24 25 23 23 25 23 23 21 18 18 17 16 15 14 14 13 12 12 12 12 13 14 15 13 13 14 14 14 14 14 15 15 15 16 16 16 16 15
22 21 21 21 20 20 18 17 17 17 23 24 26 21 18 18 18 16 14 14 14 13 12 11 12 12 12 13 14 13 12 13 13 13 13 14 14 15 15 15 15 15 15 15
21 21 19 21 19 18 17 17 17 17 15 24 22 20 18 16 16 15 14 14 14 13 13 12 12 11 11 12 13 13 13 13 13 13 14 14 14 14 14 15 15 15 15 15
22 21 20 20 18 17 17 16 16 17 18 22 23 20 17 16 16 15 13 14 13 13 13 13 12 11 11 11 12 13 13 14 14 14 14 14 14 14 14 14 13 13 13 14
20 20 18 19 19 19 18 17 17 18 16 23 22 18 18 16 15 14 14 14 14 14 13 13 12 12 12 12 12 13 13 14 14 14 14 14 14 13 13 13 11 12 12 12
Height
757 782 792 777 766 762 757 776 785 808 806 799 803 807 801 797 802 803 801 797 799 801 803 809 815 819 825 829 832 838 841 844 847 848 849 850 852 854 855 858 859 861 863 862
773 789 765 754 750 753 759 779 805 816 808 815 808 809 799 799 804 803 802 807 805 811 808 811 816 819 825 828 832 837 841 845 847 848 849 851 854 855 856 856 858 861 863 863
779 762 748 752 753 761 768 775 800 804 815 817 818 822 815 805 804 807 805 807 808 812 815 814 815 819 823 827 830 834 839 844 847 848 849 851 854 857 858 859 859 862 864 864
765 741 747 752 758 749 787 772 789 801 813 838 827 840 823 813 812 807 805 807 803 812 813 815 814 818 821 824 827 832 837 842 846 849 849 850 850 854 857 858 861 863 864 864
764 748 750 755 749 741 776 761 776 795 813 818 836 851 820 815 815 802 801 802 799 800 808 809 817 818 818 824 827 830 835 841 845 848 848 849 851 853 855 857 859 862 864 865
746 724 731 736 729 732 739 771 786 799 815 831 813 830 823 809 788 784 789 792 791 799 804 810 814 819 824 825 828 831 833 838 844 847 848 849 850 852 853 856 857 860 863 864
750 742 726 721 742 738 746 779 824 831 825 814 803 817 795 775 771 771 781 787 787 793 797 805 807 817 818 823 827 830 833 835 841 845 847 850 851 851 851 853 855 858 860 861
777 782 735 725 743 760 760 770 804 845 836 817 782 807 797 759 774 774 779 789 791 793 795 802 808 813 813 822 825 830 832 834 838 844 846 847 849 851 851 853 855 856 857 859
774 767 726 725 726 738 754 780 755 811 798 810 791 790 770 768 783 787 798 786 787 790 793 800 805 805 807 821 823 826 830 834 836 842 846 847 847 848 850 851 852 854 854 854
749 778 736 728 726 732 746 744 788 790 814 814 786 795 803 781 791 782 789 799 784 782 789 795 801 803 807 818 819 823 828 832 832 837 843 847 847 849 849 850 850 852 853 854
745 760 758 732 748 760 759 769 764 774 784 812 815 801 762 778 780 775 772 784 793 777 783 790 797 800 805 812 815 818 827 832 834 834 838 843 846 847 848 849 851 851 852 854
745 759 779 754 726 727 738 754 763 802 797 784 788 806 766 768 769 771 771 769 768 770 774 785 791 799 803 807 814 819 824 828 833 832 836 839 843 845 846 847 848 850 851 853
755 772 790 786 747 740 749 748 747 757 764 788 795 804 776 777 784 787 785 774 770 767 778 783 787 793 798 803 811 817 821 825 828 833 834 838 841 844 844 846 846 848 850 851
749 768 782 815 798 784 778 761 753 758 787 781 793 793 788 783 784 792 790 780 776 774 778 786 791 793 798 805 808 811 817 820 823 828 831 831 835 838 841 843 844 845 846 849
758 782 773 776 763 761 767 766 758 763 761 777 781 787 785 785 784 799 785 771 774 772 783 783 792 798 802 806 810 815 817 812 814 830 831 826 833 834 837 839 840 842 843 845
756 782 771 778 761 760 771 763 760 754 749 771 775 793 783 779 786 788 777 764 793 781 778 784 787 796 804 809 813 816 815 813 809 825 825 822 826 834 835 836 837 838 841 843
775 781 791 797 775 767 787 782 769 765 753 761 791 785 778 783 784 790 790 787 787 794 787 786 788 791 799 806 811 817 818 815 812 813 818 821 827 831 833 834 834 836 838 841
773 782 786 803 792 814 788 772 764 772 771 773 781 784 784 783 782 786 791 789 793 799 803 800 797 798 802 805 811 813 815 817 821 823 824 827 827 829 829 830 832 834 836 838
761 778 798 812 814 792 791 786 788 790 794 783 793 791 788 789 789 796 793 794 802 807 811 811 809 806 809 811 817 819 819 823 827 830 832 832 833 831 833 833 834 834 833 835
766 771 796 801 812 819 802 779 772 777 813 781 796 797 795 791 811 809 802 800 804 809 815 817 818 816 818 816 822 823 827 829 831 832 834 835 835 836 836 837 836 833 832 835
798 796 801 805 807 804 787 780 772 808 818 783 785 795 797 803 805 804 805 810 809 810 814 820 821 823 821 820 822 826 828 833 835 836 836 839 838 838 839 838 837 836 838 839
803 811 814 810 814 819 783 782 798 795 782 783 786 790 799 802 806 808 808 809 811 812 819 824 825 825 826 824 827 830 831 836 836 836 839 840 841 840 841 841 841 842 842 843
806 800 807 805 811 799 800 804 800 797 787 784 783 788 797 800 806 809 814 816 815 819 825 827 826 829 831 831 830 832 836 837 838 838 841 841 841 842 843 843 846 846 848 848
794 787 803 801 805 801 801 799 797 797 798 784 784 789 799 805 810 816 818 818 821 825 828 830 829 829 831 832 831 833 837 839 840 841 842 844 843 845 846 847 849 850 849 851
789 788 796 800 803 803 804 800 801 796 791 792 785 791 800 805 812 817 822 822 824 827 832 832 832 832 836 838 835 836 837 839 841 843 844 847 849 850 849 851 853 852 853 854
784 790 802 803 794 798 801 799 798 798 804 788 790 799 805 805 813 819 820 822 825 828 829 831 833 834 834 835 836 838 840 841 843 844 847 849 852 855 854 854 857 857 854 858
Wind_Speed
5 3 7 11 13 14 6 8 7 7 10 4 7 7 13 4 3 4 6 9 10 14 18 25 29 28 28 24 29 28 23 21 15 11 11 14 6 17 20 21 14 8 6 4
5 9 12 14 16 11 5 3 7 8 9 5 5 6 7 5 1 5 5 9 9 4 7 22 28 28 28 28 29 28 23 19 17 11 15 8 9 16 15 14 12 12 8 5
9 13 16 17 13 1 9 1 9 8 4 1 8 4 6 6 4 2 5 4 9 6 3 10 23 25 29 30 30 29 23 20 18 10 10 15 13 14 14 14 12 11 7 4
9 18 13 13 9 7 5 17 17 18 8 4 2 1 8 8 13 8 9 7 7 7 4 6 21 23 27 31 31 28 23 20 19 15 16 15 15 10 10 12 13 12 11 8
12 11 10 12 14 7 10 8 15 10 5 9 5 7 5 15 18 18 13 12 14 7 6 7 5 14 30 31 30 29 25 24 21 17 15 14 15 11 6 12 13 10 11 8
11 10 7 9 13 11 10 14 16 9 3 2 12 9 5 13 28 24 17 15 14 10 9 7 8 3 18 25 26 30 27 23 21 18 14 16 14 12 12 17 13 15 13 13
10 12 8 4 4 4 9 18 4 3 2 3 9 10 12 23 19 23 21 19 18 17 14 11 11 16 20 26 26 29 29 26 22 18 18 16 13 15 13 18 17 16 15 17
5 7 1 4 4 8 8 7 4 4 1 5 4 6 7 3 2 9 15 16 19 21 15 17 20 22 20 11 29 28 31 27 23 19 18 15 15 12 12 16 16 13 18 17
4 9 6 8 5 5 4 5 11 8 5 2 3 1 4 18 13 16 8 11 18 21 19 14 19 25 26 15 22 32 30 26 24 22 19 17 16 14 12 13 14 9 9 15
5 5 5 9 7 8 4 4 4 2 4 4 0 5 5 3 5 3 9 11 15 19 17 14 21 22 28 23 23 24 26 26 27 23 20 19 17 15 11 14 12 10 11 14
6 3 8 5 6 8 3 4 3 2 3 5 2 3 7 9 10 11 11 8 11 16 19 14 23 28 32 24 25 20 23 24 26 24 23 19 19 18 15 14 14 11 6 11
6 3 5 4 2 7 7 7 7 5 8 2 4 3 8 14 17 15 13 17 16 14 20 15 27 28 28 25 22 21 15 13 24 25 25 22 20 19 16 14 14 12 12 10
5 5 4 12 4 7 3 7 5 4 2 6 1 2 5 4 7 6 8 9 6 13 10 14 19 21 19 20 22 14 16 11 17 18 27 24 23 23 22 17 15 13 13 14
1 3 3 7 8 4 8 15 14 5 1 4 4 5 2 7 2 7 9 12 14 13 9 8 12 20 22 26 23 19 26 28 24 18 27 29 24 20 21 17 14 15 13 14
4 3 5 6 4 3 9 14 18 9 8 4 7 6 6 1 10 5 8 20 19 17 11 12 16 18 22 21 27 28 29 31 37 30 29 24 25 27 23 18 17 15 13 13
3 2 7 7 4 2 5 13 13 16 13 15 15 7 6 5 7 8 11 22 15 18 13 16 16 23 22 24 26 31 30 24 40 29 26 14 20 23 22 15 16 16 15 12
4 3 4 4 9 3 2 6 10 19 12 9 7 4 8 11 11 8 8 7 11 7 4 5 11 17 22 25 28 22 18 12 15 14 13 12 18 20 19 18 16 15 15 13
0 3 1 3 6 4 3 12 13 11 20 16 14 10 10 10 9 11 9 10 12 14 12 9 14 17 18 19 19 15 12 13 16 15 13 11 8 7 5 10 15 14 14 13
1 3 2 3 3 4 14 8 6 7 9 14 10 8 8 9 16 11 12 17 14 12 14 16 18 17 16 17 17 17 15 15 16 15 15 12 11 11 6 2 2 3 8 10
6 5 4 2 1 3 5 4 4 5 5 8 13 7 4 2 4 3 7 13 14 18 15 14 13 15 15 15 16 20 18 15 14 13 12 10 10 11 12 11 13 16 14 19
5 6 2 3 2 4 2 8 7 3 4 5 12 10 5 4 2 10 11 13 18 18 16 12 16 16 16 17 20 22 21 17 13 11 12 11 11 11 10 12 14 15 20 25
1 2 3 3 4 1 6 6 4 2 4 8 6 11 13 11 11 10 9 10 16 17 14 12 17 18 17 19 24 24 22 15 11 12 13 14 14 14 12 15 16 19 20 21
1 0 2 3 3 2 5 5 11 13 2 5 3 11 16 15 11 10 8 9 13 13 12 14 19 19 15 15 18 21 16 15 13 15 13 14 16 17 15 14 12 15 15 20
3 2 4 3 4 5 7 7 11 9 7 9 8 15 14 15 12 10 7 9 12 15 13 14 16 16 17 19 19 19 16 15 15 15 14 13 15 13 14 14 12 13 13 11
0 4 4 3 4 7 5 5 4 14 17 16 10 16 15 14 11 9 7 9 11 12 13 12 14 18 16 15 18 18 18 16 16 14 15 13 11 10 12 12 12 14 13 12
5 4 4 4 6 4 7 7 5 10 11 11 13 13 14 19 13 14 10 14 15 16 14 14 14 16 17 17 16 15 14 13 16 15 9 10 11 8 10 10 11 12 14 11
Wind_Direction
190 172 228 229 234 231 268 119 130 101 42 235 186 144 188 231 83 319 326 136 103 145 150 135 147 143 151 147 156 161 160 160 171 161 166 158 139 159 158 154 148 160 108 105
248 216 236 239 252 269 130 318 69 78 80 300 196 163 181 182 217 255 150 86 84 9 117 129 145 145 156 149 153 159 158 165 175 187 163 174 127 142 148 154 158 152 139 144
215 238 217 238 255 156 284 128 161 127 147 35 25 134 192 237 157 232 110 126 119 117 355 158 151 160 161 161 154 164 167 180 179 169 170 174 149 143 141 163 172 175 151 180
226 250 220 227 243 195 71 119 129 136 143 116 80 238 219 207 232 210 191 185 157 169 183 211 165 163 166 172 172 169 173 178 181 186 183 173 179 171 186 181 186 182 187 185
247 240 239 203 231 178 130 155 134 123 93 119 167 290 222 187 218 218 199 188 185 190 179 221 146 163 173 175 178 177 178 184 188 196 193 193 182 192 202 201 210 189 181 188
246 253 243 202 216 187 184 120 124 133 145 194 155 189 226 193 209 208 192 190 190 184 201 176 162 332 195 178 175 182 176 185 193 196 193 197 201 200 181 194 187 198 195 203
260 257 252 110 81 305 219 132 140 265 263 255 168 171 244 222 217 201 191 187 187 192 199 169 155 225 180 183 184 181 181 179 192 197 198 199 206 211 203 187 191 203 207 211
215 279 114 120 204 214 202 172 177 73 331 290 251 195 331 26 59 178 214 195 193 202 203 185 186 189 173 180 194 181 179 178 185 196 202 199 205 208 192 191 196 208 215 221
306 251 209 201 182 196 230 146 233 131 209 156 174 127 301 69 44 45 15 226 195 200 205 160 174 190 195 192 167 180 180 182 177 188 198 204 205 197 212 217 211 222 224 211
277 263 259 208 153 267 213 240 4 318 191 232 172 125 198 105 186 39 345 309 229 189 190 164 171 187 191 181 167 165 187 189 186 190 200 207 205 208 205 214 215 193 189 166
354 29 303 173 181 192 269 292 287 156 150 191 164 268 184 166 185 132 273 266 271 187 184 176 175 184 194 161 166 170 192 201 192 191 199 206 210 206 208 213 214 198 197 182
345 300 308 252 161 218 214 228 203 131 287 257 163 240 145 163 187 186 211 217 213 214 182 163 168 181 187 175 165 151 171 200 207 195 200 203 207 208 206 205 207 215 200 181
331 339 348 352 7 15 326 321 289 215 229 270 58 241 79 82 65 48 354 305 285 203 167 174 159 171 167 172 173 195 225 248 225 230 201 206 209 217 214 218 214 205 216 206
48 23 104 148 254 239 323 331 336 326 60 240 15 110 70 89 43 1 337 11 347 238 158 159 144 156 153 161 164 171 238 233 235 250 213 203 206 207 210 213 217 209 218 228
40 22 26 176 226 354 299 320 316 332 258 114 172 74 148 152 102 234 58 50 8 146 147 127 128 138 154 164 170 193 194 205 227 262 221 196 213 209 213 211 210 208 216 231
312 319 24 336 328 255 264 296 348 338 356 84 95 87 152 130 124 70 69 78 24 328 135 133 125 137 153 170 181 193 208 222 233 208 204 185 203 226 211 214 207 213 217 219
38 35 43 305 341 264 198 335 26 356 29 96 64 78 75 74 72 84 51 64 155 240 299 75 140 146 158 170 180 164 151 141 160 136 144 185 196 209 219 223 216 214 214 214
355 19 81 274 355 354 99 11 49 42 45 81 89 91 71 89 90 68 41 53 56 58 29 30 56 72 84 115 116 119 112 93 93 92 90 91 118 127 167 201 215 223 219 208
186 91 24 90 335 290 23 11 13 8 15 70 91 93 80 78 68 47 65 79 77 65 42 28 36 59 82 87 105 107 98 96 94 95 91 91 83 83 85 98 279 192 168 169
1 75 115 359 302 234 192 15 17 332 30 16 122 109 85 57 64 134 89 91 79 76 69 52 54 83 81 98 114 107 104 98 88 92 89 89 93 89 89 82 85 125 140 125
7 359 332 324 293 78 4 3 333 82 193 354 112 148 153 94 151 119 106 85 85 89 79 83 81 74 78 95 107 85 89 89 95 93 93 90 87 89 87 97 92 113 116 125
121 348 325 23 41 78 342 335 50 298 24 56 84 113 106 104 100 99 93 91 89 87 90 94 86 78 83 103 112 92 85 93 92 96 94 92 89 85 91 92 106 111 110 105
46 90 156 107 153 144 48 42 4 2 23 22 336 123 124 118 111 102 97 97 96 92 101 115 113 107 101 103 108 98 88 96 92 95 95 93 90 83 80 78 83 96 113 117
115 351 86 78 19 58 52 31 18 348 349 343 77 117 119 121 124 121 112 114 116 128 133 132 121 112 117 121 118 111 107 104 99 88 84 82 91 88 83 88 90 93 92 122
3 145 157 104 103 84 51 94 55 343 325 299 101 119 126 125 127 133 134 130 128 136 147 144 134 128 127 124 122 121 119 116 110 102 101 95 84 82 86 80 78 86 80 90
176 163 162 197 173 144 177 163 161 203 283 325 122 118 128 138 141 146 145 146 148 154 154 148 144 141 141 140 134 131 129 125 119 115 115 118 105 97 95 98 93 92 94 86